Reno - Stead, NV

1:04 PM PST on December 11, 2017 (GMT -0800)
Reno - Stead

Weather History for KRTS - December, 2012

Change the Weather History Date:

Wednesday, December 19, 2012

  Actual Average (KRNO) Record (KRNO)
Temperature  
Mean Temperature 20 °F -  
Max Temperature 32 °F 42 °F 67 °F (1917)
Min Temperature 8 °F 17 °F -3 °F (1978)
Degree Days  
Heating Degree Days 45    
Moisture  
Dew Point 7 °F    
Average Humidity 60    
Maximum Humidity 85    
Minimum Humidity 27    
Precipitation  
Precipitation 0.00 in - - ()
Sea Level Pressure  
Sea Level Pressure 30.14 in    
Wind  
Wind Speed 5 mph (NNE)    
Max Wind Speed 10 mph    
Max Gust Speed -    
Visibility 10 miles    
Events      
Averages and records for this station are not official NWS values.
T = Trace of Precipitation, MM = Missing Value Source: NWS Daily Summary

Daily Weather History Graph

Daily Weather History Graph

Search for Another Location

Airport or City:

Trip Planner

Search our weather history database for the weather conditions in past years. The results will help you decide how hot, cold, wet, or windy it might be!

Date:

Astronomy

Dec. 19, 2012 Rise Set
Actual Time 7:16 AM PST 4:37 PM PST
Civil Twilight 6:45 AM PST 5:08 PM PST
Nautical Twilight 6:11 AM PST 5:42 PM PST
Astronomical Twilight 5:38 AM PST 6:15 PM PST
Moon 11:28 AM PST (12/19) No Moon Set
Length of Visible Light 10h 22m
Length of Day
9h 21m
Waxing Crescent, 46% of the Moon is Illuminated
Dec 19
Waxing Crescent
Dec 19
First Quarter
Dec 28
Full
Jan 4
Last Quarter
Jan 11
New

Hourly Weather History & Observations

Time (PST) Temp. Windchill Dew Point Humidity Pressure Visibility Wind Dir Wind Speed Gust Speed Precip Events Conditions
12:15 AM 15.8 °F 7.2 °F 8.6 °F 73% 30.06 in 10.0 mi NNW 5.8 mph - N/A   Clear
12:35 AM 12.2 °F 2.9 °F 6.8 °F 79% 30.06 in 10.0 mi NNW 5.8 mph - N/A   Clear
12:55 AM 10.4 °F 2.2 °F 5.0 °F 79% 30.07 in 10.0 mi North 4.6 mph - N/A   Clear
1:15 AM 12.2 °F 0.7 °F 6.8 °F 79% 30.07 in 10.0 mi NNW 8.1 mph - N/A   Clear
1:35 AM 12.2 °F 2.9 °F 6.8 °F 79% 30.07 in 10.0 mi North 5.8 mph - N/A   Clear
1:55 AM 14.0 °F 6.5 °F 6.8 °F 73% 30.08 in 10.0 mi North 4.6 mph - N/A   Clear
2:15 AM 14.0 °F 6.5 °F 6.8 °F 73% 30.08 in 10.0 mi North 4.6 mph - N/A   Clear
2:35 AM 10.4 °F -3.3 °F 5.0 °F 79% 30.09 in 10.0 mi North 10.4 mph - N/A   Clear
2:55 AM 14.0 °F 3.9 °F 6.8 °F 73% 30.09 in 10.0 mi North 6.9 mph - N/A   Clear
3:15 AM 14.0 °F 2.9 °F 6.8 °F 73% 30.10 in 10.0 mi North 8.1 mph - N/A   Clear
3:35 AM 12.2 °F - 6.8 °F 79% 30.12 in 10.0 mi Calm Calm - N/A   Clear
3:55 AM 14.0 °F 5.1 °F 5.0 °F 67% 30.12 in 10.0 mi NNW 5.8 mph - N/A   Clear
4:15 AM 14.0 °F 3.9 °F 5.0 °F 67% 30.11 in 10.0 mi NNW 6.9 mph - N/A   Clear
4:35 AM 14.0 °F - 5.0 °F 67% 30.11 in 10.0 mi Calm Calm - N/A   Clear
4:55 AM 10.4 °F - 5.0 °F 79% 30.11 in 10.0 mi Calm Calm - N/A   Clear
5:15 AM 10.4 °F -0.4 °F 3.2 °F 73% 30.12 in 10.0 mi NW 6.9 mph - N/A   Clear
5:35 AM 8.6 °F 0.1 °F 3.2 °F 79% 30.13 in 10.0 mi NNE 4.6 mph - N/A   Clear
5:55 AM 10.4 °F 2.2 °F 5.0 °F 79% 30.13 in 10.0 mi NE 4.6 mph - N/A   Clear
6:15 AM 10.4 °F - 5.0 °F 79% 30.14 in 10.0 mi Calm Calm - N/A   Clear
6:35 AM 8.6 °F -3.7 °F 1.4 °F 73% 30.14 in 10.0 mi North 8.1 mph - N/A   Clear
6:55 AM 8.6 °F 0.1 °F 1.4 °F 73% 30.15 in 10.0 mi North 4.6 mph - N/A   Clear
7:15 AM 8.6 °F 0.1 °F 3.2 °F 79% 30.16 in 10.0 mi North 4.6 mph - N/A   Clear
7:35 AM 8.6 °F - 3.2 °F 79% 30.16 in 10.0 mi Calm Calm - N/A   Clear
7:55 AM 8.6 °F 2.0 °F 5.0 °F 85% 30.16 in 10.0 mi NW 3.5 mph - N/A   Clear
8:15 AM 12.2 °F - 6.8 °F 79% 30.16 in 10.0 mi Calm Calm - N/A   Clear
8:35 AM 15.8 °F - 8.6 °F 73% 30.18 in 10.0 mi Calm Calm - N/A   Clear
8:55 AM 15.8 °F - 8.6 °F 73% 30.18 in 10.0 mi Calm Calm - N/A   Clear
9:15 AM 17.6 °F 12.3 °F 8.6 °F 68% 30.19 in 10.0 mi WSW 3.5 mph - N/A   Clear
9:55 AM 19.4 °F 12.8 °F 8.6 °F 63% 30.20 in 10.0 mi SE 4.6 mph - N/A   Clear
10:15 AM 23.0 °F 15.8 °F 8.6 °F 54% 30.20 in 10.0 mi ESE 5.8 mph - N/A   Clear
10:35 AM 23.0 °F 18.4 °F 8.6 °F 54% 30.19 in 10.0 mi SSE 3.5 mph - N/A   Clear
10:55 AM 23.0 °F - 8.6 °F 54% 30.19 in 10.0 mi Calm Calm - N/A   Clear
11:15 AM 24.8 °F - 6.8 °F 46% 30.18 in 10.0 mi Calm Calm - N/A   Clear
11:35 AM 26.6 °F 20.0 °F 6.8 °F 43% 30.18 in 10.0 mi SSE 5.8 mph - N/A   Clear
11:55 AM 26.6 °F 20.0 °F 8.6 °F 47% 30.18 in 10.0 mi SE 5.8 mph - N/A   Clear
12:15 PM 28.4 °F 23.3 °F 8.6 °F 43% 30.18 in 10.0 mi SSE 4.6 mph - N/A   Clear
12:35 PM 30.2 °F 24.3 °F 8.6 °F 40% 30.17 in 10.0 mi SE 5.8 mph - N/A   Clear
12:55 PM 30.2 °F 23.4 °F 10.4 °F 44% 30.16 in 10.0 mi SSE 6.9 mph - N/A   Clear
1:15 PM 32.0 °F 24.8 °F 8.6 °F 38% 30.15 in 10.0 mi SSE 8.1 mph - N/A   Clear
1:35 PM 32.0 °F 24.8 °F 6.8 °F 35% 30.15 in 10.0 mi South 8.1 mph - N/A   Clear
1:55 PM 32.0 °F 24.8 °F 5.0 °F 32% 30.15 in 10.0 mi SSE 8.1 mph - N/A   Clear
2:15 PM 32.0 °F 24.8 °F 5.0 °F 32% 30.15 in 10.0 mi SE 8.1 mph - N/A   Clear
2:35 PM 32.0 °F 23.6 °F 3.2 °F 30% 30.14 in 10.0 mi SSE 10.4 mph - N/A   Clear
2:55 PM 32.0 °F 24.2 °F 1.4 °F 27% 30.15 in 10.0 mi SSE 9.2 mph - N/A   Clear
3:15 PM 32.0 °F 24.8 °F 5.0 °F 32% 30.15 in 10.0 mi SSE 8.1 mph - N/A   Clear
3:35 PM 32.0 °F 25.6 °F 5.0 °F 32% 30.15 in 10.0 mi SE 6.9 mph - N/A   Clear
3:55 PM 32.0 °F 24.8 °F 6.8 °F 35% 30.15 in 10.0 mi SE 8.1 mph - N/A   Clear
4:15 PM 32.0 °F 26.4 °F 8.6 °F 38% 30.15 in 10.0 mi SE 5.8 mph - N/A   Clear
4:35 PM 30.2 °F 25.4 °F 8.6 °F 40% 30.15 in 10.0 mi SE 4.6 mph - N/A   Clear
4:55 PM 30.2 °F 25.4 °F 8.6 °F 40% 30.15 in 10.0 mi SE 4.6 mph - N/A   Clear
5:15 PM 28.4 °F 22.2 °F 10.4 °F 47% 30.14 in 10.0 mi ESE 5.8 mph - N/A   Clear
5:35 PM 28.4 °F 22.2 °F 10.4 °F 47% 30.14 in 10.0 mi East 5.8 mph - N/A   Clear
5:55 PM 28.4 °F 23.3 °F 10.4 °F 47% 30.14 in 10.0 mi SE 4.6 mph - N/A   Clear
6:15 PM 28.4 °F - 8.6 °F 43% 30.14 in 10.0 mi Calm Calm - N/A   Clear
6:35 PM 28.4 °F - 6.8 °F 40% 30.15 in 10.0 mi Calm Calm - N/A   Clear
6:55 PM 24.8 °F - 10.4 °F 54% 30.15 in 10.0 mi Calm Calm - N/A   Clear
7:15 PM 24.8 °F - 10.4 °F 54% 30.15 in 10.0 mi Calm Calm - N/A   Clear
7:35 PM 23.0 °F 18.4 °F 10.4 °F 59% 30.15 in 10.0 mi NNW 3.5 mph - N/A   Clear
7:55 PM 23.0 °F - 10.4 °F 59% 30.15 in 10.0 mi Calm Calm - N/A   Clear
8:15 PM 23.0 °F 17.0 °F 8.6 °F 54% 30.14 in 10.0 mi North 4.6 mph - N/A   Clear
8:35 PM 23.0 °F 17.0 °F 8.6 °F 54% 30.15 in 10.0 mi North 4.6 mph - N/A   Clear
8:55 PM 19.4 °F 12.8 °F 10.4 °F 68% 30.14 in 10.0 mi North 4.6 mph - N/A   Clear
9:15 PM 19.4 °F 12.8 °F 10.4 °F 68% 30.14 in 10.0 mi NNW 4.6 mph - N/A   Clear
9:35 PM 17.6 °F 8.2 °F 10.4 °F 73% 30.14 in 10.0 mi North 6.9 mph - N/A   Clear
9:55 PM 17.6 °F 9.3 °F 10.4 °F 73% 30.14 in 10.0 mi North 5.8 mph - N/A   Clear
10:15 PM 19.4 °F 11.5 °F 8.6 °F 63% 30.14 in 10.0 mi North 5.8 mph - N/A   Clear
10:35 PM 19.4 °F 11.5 °F 8.6 °F 63% 30.14 in 10.0 mi NNW 5.8 mph - N/A   Clear
10:55 PM 17.6 °F - 8.6 °F 68% 30.14 in 10.0 mi Calm Calm - N/A   Clear
11:15 PM 17.6 °F 10.7 °F 8.6 °F 68% 30.13 in 10.0 mi North 4.6 mph - N/A   Clear
11:35 PM 15.8 °F 8.6 °F 8.6 °F 73% 30.13 in 10.0 mi NNW 4.6 mph - N/A   Clear
11:55 PM 14.0 °F 5.1 °F 8.6 °F 79% 30.13 in 10.0 mi North 5.8 mph - N/A   Clear